Total_Precipitation_Accumulation
0.00 0.00 0.01 0.01 0.01 0.02 0.03 0.06 0.13 0.21 0.16 0.24 0.32 0.42 0.56 0.71 0.94 0.97 1.03 1.11 1.29 1.63 2.07 2.67 3.30 3.89 4.58 5.30 5.79 5.65 4.97 4.37 3.70 3.13 2.56 2.39 2.17 1.94 1.70 1.48 1.27 1.14 1.00 0.92
0.01 0.03 0.03 0.02 0.02 0.03 0.04 0.07 0.13 0.17 0.14 0.14 0.25 0.51 0.64 0.74 0.90 0.86 0.86 0.82 0.99 1.42 2.05 2.79 3.39 3.61 3.59 3.79 3.96 3.47 3.21 3.04 2.58 2.29 2.11 1.94 1.83 1.65 1.44 1.31 1.18 0.93 0.86 0.83
0.02 0.04 0.03 0.02 0.03 0.04 0.07 0.09 0.09 0.15 0.16 0.21 0.35 0.66 0.85 0.78 0.75 0.66 0.65 0.79 1.27 1.72 2.15 2.64 2.78 2.78 2.66 2.61 2.55 2.25 2.10 2.26 2.14 2.08 1.98 1.85 1.87 1.81 1.56 1.26 1.13 0.91 0.78 0.75
0.01 0.03 0.03 0.04 0.04 0.04 0.07 0.06 0.04 0.04 0.12 0.34 0.50 0.89 1.04 0.94 0.84 0.59 0.61 0.96 1.52 1.83 2.11 2.08 1.67 1.50 1.64 1.72 1.77 1.94 1.94 1.96 1.86 1.82 1.59 1.39 1.26 1.16 1.05 1.03 0.99 0.97 0.84 0.76
0.03 0.03 0.03 0.04 0.04 0.03 0.04 0.04 0.03 0.05 0.15 0.39 0.65 1.05 1.23 0.99 0.80 0.56 0.45 0.59 1.02 1.22 1.15 0.94 0.80 0.85 1.06 1.28 1.51 1.86 1.90 1.79 1.68 1.61 1.55 1.52 1.38 1.31 1.19 1.16 1.18 1.13 1.08 0.95
0.04 0.04 0.04 0.03 0.03 0.03 0.03 0.04 0.10 0.20 0.37 0.82 0.86 0.94 1.16 0.96 0.76 0.57 0.38 0.43 0.68 0.71 0.54 0.55 0.63 0.80 1.01 1.17 1.28 1.47 1.60 1.72 1.75 1.76 1.74 1.63 1.50 1.43 1.31 1.18 1.08 1.05 1.01 0.95
0.09 0.08 0.06 0.04 0.03 0.04 0.03 0.05 0.25 0.60 0.89 1.00 0.71 0.86 1.15 0.77 0.50 0.38 0.26 0.25 0.28 0.31 0.38 0.54 0.61 0.78 0.88 1.00 1.03 1.11 1.21 1.38 1.47 1.53 1.60 1.60 1.54 1.45 1.26 1.16 1.03 0.98 0.87 0.79
0.14 0.14 0.08 0.04 0.05 0.05 0.04 0.03 0.10 0.21 0.32 0.51 0.67 1.06 1.13 0.73 0.39 0.22 0.15 0.14 0.17 0.20 0.25 0.30 0.35 0.44 0.56 0.74 0.92 1.03 1.05 1.05 1.04 1.06 1.21 1.35 1.34 1.29 1.21 1.19 1.00 0.91 0.85 0.82
0.04 0.04 0.04 0.04 0.05 0.03 0.03 0.03 0.04 0.05 0.08 0.31 0.73 1.00 0.90 0.54 0.36 0.25 0.21 0.19 0.19 0.18 0.21 0.22 0.23 0.29 0.38 0.43 0.57 0.76 0.80 0.80 0.79 0.83 0.92 0.98 1.04 1.13 1.18 1.09 0.92 0.80 0.81 0.82
0.02 0.02 0.03 0.03 0.03 0.04 0.04 0.03 0.03 0.05 0.10 0.23 0.56 1.02 1.14 0.74 0.49 0.37 0.31 0.24 0.19 0.20 0.20 0.21 0.22 0.25 0.28 0.31 0.42 0.57 0.69 0.71 0.72 0.73 0.78 0.76 0.87 0.95 1.01 0.99 0.90 0.79 0.77 0.81
0.02 0.01 0.02 0.03 0.04 0.06 0.05 0.04 0.05 0.06 0.07 0.15 0.41 0.65 0.62 0.61 0.48 0.33 0.29 0.25 0.20 0.21 0.22 0.24 0.22 0.27 0.25 0.24 0.31 0.43 0.59 0.65 0.60 0.60 0.66 0.72 0.80 0.92 0.97 0.94 0.94 0.86 0.83 0.83
0.02 0.01 0.02 0.04 0.06 0.06 0.07 0.07 0.07 0.08 0.08 0.11 0.20 0.33 0.36 0.37 0.42 0.45 0.37 0.32 0.31 0.32 0.25 0.25 0.22 0.24 0.19 0.21 0.27 0.36 0.43 0.49 0.51 0.55 0.64 0.69 0.73 0.84 0.95 0.91 0.92 0.94 0.92 0.87
0.02 0.01 0.03 0.10 0.15 0.14 0.10 0.09 0.08 0.08 0.08 0.08 0.19 0.32 0.32 0.28 0.30 0.35 0.34 0.39 0.41 0.34 0.31 0.24 0.22 0.20 0.17 0.18 0.22 0.29 0.38 0.47 0.48 0.52 0.63 0.69 0.68 0.73 0.85 0.91 0.90 0.91 0.94 0.98
0.02 0.02 0.02 0.08 0.16 0.20 0.19 0.14 0.10 0.06 0.06 0.06 0.10 0.21 0.21 0.31 0.39 0.36 0.38 0.44 0.39 0.25 0.24 0.22 0.20 0.20 0.24 0.24 0.26 0.33 0.44 0.46 0.50 0.52 0.59 0.66 0.69 0.77 0.86 0.87 0.90 0.93 0.93 0.98
0.02 0.02 0.02 0.02 0.06 0.11 0.17 0.16 0.11 0.06 0.05 0.06 0.07 0.12 0.19 0.34 0.44 0.46 0.45 0.45 0.39 0.29 0.27 0.24 0.24 0.25 0.26 0.30 0.34 0.42 0.54 0.55 0.56 0.69 0.79 0.85 0.83 0.86 0.92 0.94 0.94 1.03 1.05 1.06
0.04 0.04 0.03 0.03 0.05 0.08 0.10 0.13 0.09 0.06 0.05 0.05 0.06 0.13 0.25 0.40 0.46 0.48 0.43 0.40 0.37 0.35 0.29 0.27 0.28 0.31 0.29 0.31 0.39 0.46 0.55 0.61 0.73 0.99 1.12 1.13 1.17 1.18 1.18 1.17 1.11 1.17 1.26 1.39
0.11 0.09 0.07 0.05 0.07 0.08 0.13 0.11 0.10 0.08 0.07 0.07 0.10 0.19 0.27 0.38 0.53 0.59 0.50 0.38 0.37 0.35 0.35 0.35 0.38 0.43 0.40 0.41 0.45 0.47 0.52 0.62 0.78 0.96 1.10 1.20 1.24 1.25 1.30 1.31 1.32 1.34 1.39 1.44
0.19 0.19 0.15 0.10 0.10 0.17 0.15 0.12 0.13 0.12 0.12 0.15 0.23 0.31 0.35 0.38 0.44 0.48 0.41 0.39 0.41 0.40 0.44 0.48 0.49 0.53 0.53 0.53 0.53 0.58 0.70 0.80 0.90 1.01 1.12 1.28 1.33 1.37 1.40 1.35 1.30 1.28 1.29 1.29
0.24 0.27 0.24 0.21 0.19 0.18 0.16 0.19 0.21 0.20 0.24 0.27 0.37 0.48 0.52 0.50 0.50 0.58 0.50 0.48 0.47 0.49 0.50 0.55 0.60 0.62 0.67 0.73 0.72 0.73 0.83 0.97 1.08 1.15 1.28 1.39 1.46 1.55 1.49 1.38 1.31 1.22 1.19 1.11
0.29 0.32 0.38 0.32 0.34 0.33 0.25 0.29 0.28 0.30 0.49 0.46 0.51 0.62 0.70 0.70 0.85 0.89 0.67 0.62 0.56 0.51 0.53 0.58 0.67 0.72 0.76 0.86 0.90 0.90 0.94 1.00 1.07 1.13 1.21 1.31 1.39 1.52 1.54 1.45 1.40 1.34 1.31 1.21
0.41 0.44 0.41 0.41 0.43 0.38 0.35 0.33 0.34 0.59 0.79 0.73 0.69 0.68 0.78 0.88 0.81 0.76 0.63 0.62 0.58 0.51 0.52 0.55 0.61 0.72 0.77 0.84 0.92 0.99 0.99 0.96 0.97 0.95 0.93 1.02 1.16 1.30 1.36 1.38 1.38 1.43 1.42 1.35
0.57 0.61 0.58 0.53 0.66 0.73 0.52 0.43 0.59 0.81 0.80 0.87 0.78 0.74 0.79 0.84 0.86 0.80 0.71 0.64 0.57 0.48 0.50 0.55 0.59 0.65 0.74 0.84 0.98 1.07 1.05 1.01 0.99 0.98 1.00 1.04 1.11 1.12 1.10 1.17 1.20 1.28 1.35 1.33
0.74 0.77 0.77 0.77 0.88 0.81 0.60 0.59 0.65 0.66 0.79 0.82 0.77 0.77 0.75 0.74 0.75 0.70 0.59 0.55 0.56 0.52 0.49 0.46 0.51 0.59 0.69 0.86 1.00 1.11 1.09 1.13 1.13 1.10 1.12 1.14 1.16 1.16 1.16 1.15 1.16 1.16 1.14 1.07
0.80 0.67 0.78 0.93 1.03 0.88 0.73 0.66 0.66 0.69 0.74 0.75 0.73 0.78 0.78 0.71 0.65 0.63 0.57 0.51 0.51 0.49 0.44 0.43 0.43 0.48 0.59 0.67 0.75 0.89 0.93 1.02 1.12 1.10 1.02 0.94 0.93 0.93 0.97 1.03 1.03 1.05 1.02 0.97
0.82 0.78 0.86 1.09 1.24 1.15 0.97 0.79 0.72 0.79 0.81 0.84 0.84 0.79 0.74 0.72 0.74 0.77 0.69 0.54 0.44 0.43 0.45 0.45 0.45 0.49 0.52 0.56 0.61 0.69 0.78 0.91 1.07 1.12 1.05 1.00 0.96 0.92 0.92 0.96 1.01 0.99 0.97 0.92
0.68 0.81 0.96 1.21 1.19 1.21 1.15 0.91 0.85 0.91 0.97 0.95 0.88 0.82 0.79 0.79 0.77 0.69 0.61 0.52 0.43 0.43 0.49 0.54 0.55 0.55 0.52 0.53 0.59 0.65 0.76 0.90 1.04 1.05 0.96 0.95 0.95 0.94 0.94 0.92 0.96 1.00 0.89 0.89